�������l�o���
Date,Time,MP-1(��Sv/h),MP-2(��Sv/h),MP-3(��Sv/h),MP-4(��Sv/h),MP-5(��Sv/h),MP-6(��Sv/h),MP-7(��Sv/h),MP-8(��Sv/h),����,����(m/s),���J
2017/01/25,00:00,1.040,1.777,1.147,1.999,1.378,0.547,1.013,0.942,���쐼,3.8,��
2017/01/25,00:10,1.042,1.776,1.145,1.996,1.380,0.546,1.013,0.944,��,3.1,��
2017/01/25,00:20,1.041,1.775,1.145,2.001,1.375,0.548,1.015,0.943,��,2.8,��
2017/01/25,00:30,1.042,1.776,1.148,2.000,1.378,0.547,1.012,0.943,-,CALM,��
2017/01/25,00:40,1.040,1.774,1.147,2.001,1.374,0.547,1.012,0.944,���k��,1.7,��
2017/01/25,00:50,1.041,1.775,1.149,2.000,1.376,0.548,1.014,0.945,-,CALM,��
2017/01/25,01:00,1.040,1.773,1.146,1.999,1.374,0.547,1.014,0.943,�k��,1.1,��
2017/01/25,01:10,1.043,1.773,1.147,2.000,1.376,0.548,1.013,0.944,���k��,2.3,��
2017/01/25,01:20,1.039,1.772,1.148,2.001,1.372,0.547,1.012,0.943,�k��,5.0,��
2017/01/25,01:30,1.042,1.773,1.145,2.000,1.376,0.550,1.013,0.942,���k��,3.0,��
2017/01/25,01:40,1.043,1.774,1.146,2.000,1.376,0.548,1.014,0.943,���k��,3.3,��
2017/01/25,01:50,1.043,1.774,1.145,1.997,1.374,0.548,1.013,0.943,���쐼,1.2,��
2017/01/25,02:00,1.040,1.770,1.147,2.000,1.374,0.547,1.013,0.944,���쐼,0.8,��
2017/01/25,02:10,1.040,1.774,1.145,1.997,1.373,0.549,1.013,0.942,�k,2.3,��
2017/01/25,02:20,1.041,1.772,1.147,1.998,1.374,0.548,1.013,0.943,��,0.6,��
2017/01/25,02:30,1.042,1.770,1.145,1.997,1.374,0.547,1.014,0.943,��쓌,1.2,��
2017/01/25,02:40,1.040,1.776,1.145,2.001,1.375,0.547,1.012,0.945,���쐼,2.0,��
2017/01/25,02:50,1.040,1.773,1.146,1.999,1.371,0.547,1.012,0.941,���k��,6.0,��
2017/01/25,03:00,1.041,1.772,1.145,1.999,1.372,0.549,1.014,0.943,���k��,6.7,��
2017/01/25,03:10,1.040,1.773,1.148,2.001,1.372,0.547,1.014,0.945,�k��,6.4,��
2017/01/25,03:20,1.042,1.774,1.146,2.000,1.373,0.547,1.014,0.944,�k��,6.9,��
2017/01/25,03:30,1.041,1.773,1.147,1.999,1.375,0.548,1.013,0.944,�k��,7.6,��
2017/01/25,03:40,1.042,1.774,1.143,1.999,1.374,0.546,1.011,0.943,�k��,6.7,��
2017/01/25,03:50,1.040,1.772,1.145,2.000,1.373,0.548,1.014,0.942,�k��,5.4,��
2017/01/25,04:00,1.040,1.773,1.146,1.999,1.375,0.549,1.014,0.945,�k��,4.3,��
2017/01/25,04:10,1.039,1.775,1.144,1.998,1.372,0.549,1.014,0.944,�k��,3.7,��
2017/01/25,04:20,1.039,1.774,1.145,1.998,1.374,0.547,1.014,0.944,�k�k��,3.3,��
2017/01/25,04:30,1.041,1.772,1.144,1.998,1.376,0.548,1.014,0.942,�k��,2.9,��
2017/01/25,04:40,1.040,1.772,1.142,1.997,1.373,0.549,1.013,0.941,���k��,2.3,��
2017/01/25,04:50,1.040,1.771,1.143,1.996,1.372,0.546,1.012,0.942,���k��,2.6,��
2017/01/25,05:00,1.039,1.770,1.144,1.996,1.373,0.546,1.012,0.943,���k��,3.2,��
2017/01/25,05:10,1.038,1.773,1.144,2.000,1.372,0.547,1.014,0.943,�k��,3.6,��
2017/01/25,05:20,1.040,1.772,1.144,1.998,1.371,0.547,1.012,0.941,���k��,3.1,��
2017/01/25,05:30,1.039,1.772,1.142,1.996,1.374,0.545,1.011,0.944,���k��,3.4,��
2017/01/25,05:40,1.036,1.768,1.145,1.994,1.370,0.545,1.012,0.941,���k��,3.6,��
2017/01/25,05:50,1.038,1.770,1.143,1.997,1.371,0.547,1.014,0.943,���k��,3.9,��
2017/01/25,06:00,1.038,1.770,1.144,1.998,1.372,0.547,1.014,0.944,���k��,5.0,��
2017/01/25,06:10,1.040,1.772,1.144,1.998,1.372,0.545,1.011,0.943,���k��,5.9,��
2017/01/25,06:20,1.037,1.773,1.146,1.999,1.372,0.548,1.012,0.941,���k��,5.5,��
2017/01/25,06:30,1.038,1.774,1.142,1.996,1.372,0.547,1.011,0.943,�k��,4.4,��
2017/01/25,06:40,1.038,1.770,1.143,1.996,1.373,0.546,1.014,0.944,���k��,4.6,��
2017/01/25,06:50,1.037,1.772,1.144,1.997,1.371,0.547,1.013,0.941,���k��,3.3,��
2017/01/25,07:00,1.038,1.771,1.145,1.995,1.370,0.547,1.010,0.942,�k��,2.8,��
2017/01/25,07:10,1.037,1.771,1.143,1.996,1.368,0.548,1.012,0.942,�k��,2.0,��
2017/01/25,07:20,1.038,1.770,1.142,1.999,1.368,0.547,1.014,0.941,���쐼,1.2,��
2017/01/25,07:30,1.039,1.770,1.145,1.998,1.369,0.545,1.012,0.941,�쐼,1.7,��
2017/01/25,07:40,1.036,1.773,1.145,1.995,1.370,0.545,1.013,0.942,��,1.7,��
2017/01/25,07:50,1.040,1.767,1.147,2.000,1.372,0.546,1.013,0.943,���쐼,2.6,��
2017/01/25,08:00,1.039,1.774,1.146,1.997,1.373,0.547,1.013,0.943,���쐼,4.1,��
2017/01/25,08:10,1.039,1.768,1.146,1.998,1.370,0.547,1.013,0.943,��,4.2,��
2017/01/25,08:20,1.043,1.772,1.148,1.997,1.373,0.547,1.011,0.943,��,5.1,��
2017/01/25,08:30,1.042,1.772,1.149,2.000,1.373,0.546,1.014,0.942,��,5.4,��
2017/01/25,08:40,1.042,1.773,1.148,2.001,1.374,0.546,1.014,0.944,��,6.1,��
2017/01/25,08:50,1.043,1.770,1.147,1.997,1.373,0.548,1.014,0.943,��,5.8,��
2017/01/25,09:00,1.042,1.765,1.149,1.999,1.373,0.548,1.015,0.943,��,5.2,��
2017/01/25,09:10,1.042,1.775,1.149,1.998,1.373,0.548,1.015,0.944,��,5.3,��
2017/01/25,09:20,1.044,1.776,1.152,2.001,1.375,0.548,1.015,0.943,��,5.3,��
2017/01/25,09:30,1.046,1.774,1.148,2.000,1.374,0.549,1.016,0.943,��,4.9,��
2017/01/25,09:40,1.044,1.776,1.149,2.002,1.376,0.548,1.017,0.945,��,5.1,��
2017/01/25,09:50,1.044,1.776,1.151,2.001,1.376,0.548,1.013,0.943,���k��,7.5,��
2017/01/25,10:00,1.049,1.775,1.151,1.999,1.377,0.548,1.014,0.945,���k��,4.9,��
2017/01/25,10:10,1.047,1.777,1.150,1.999,1.376,0.548,1.014,0.944,��,4.9,��
2017/01/25,10:20,1.046,1.777,1.154,2.001,1.361,0.548,1.014,0.944,�k��,7.6,��
2017/01/25,10:30,1.046,1.778,1.154,2.004,1.356,0.549,1.014,0.945,�k��,6.8,��
2017/01/25,10:40,1.047,1.778,1.156,2.002,1.380,0.550,1.014,0.945,���k��,3.2,��
2017/01/25,10:50,1.048,1.756,1.155,2.003,1.381,0.550,1.013,0.945,�k��,3.4,��
2017/01/25,11:00,1.048,1.770,1.153,2.003,1.383,0.549,1.014,0.944,���k��,3.8,��
2017/01/25,11:10,1.050,1.776,1.156,2.002,1.380,0.550,1.014,0.945,�k�k��,5.3,��
2017/01/25,11:20,1.050,1.778,1.154,2.002,1.383,0.548,1.013,0.946,�k�k��,7.3,��
2017/01/25,11:30,1.049,1.782,1.153,2.006,1.386,0.549,1.014,0.946,�k�k��,5.9,��
2017/01/25,11:40,1.049,1.779,1.154,2.004,1.383,0.550,1.012,0.946,�k��,4.3,��
2017/01/25,11:50,1.050,1.781,1.152,2.003,1.385,0.550,1.013,0.946,���k��,1.5,��
2017/01/25,12:00,1.051,1.782,1.152,2.008,1.383,0.550,1.014,0.946,���k��,0.8,��
2017/01/25,12:10,1.051,1.780,1.152,2.005,1.389,0.550,1.015,0.946,���k��,2.6,��
2017/01/25,12:20,1.050,1.782,1.153,2.007,1.392,0.550,1.014,0.945,��,6.7,��
2017/01/25,12:30,1.054,1.780,1.154,2.003,1.387,0.550,1.016,0.946,��,6.0,��
2017/01/25,12:40,1.053,1.781,1.153,2.007,1.387,0.551,1.016,0.945,��,4.8,��
2017/01/25,12:50,1.053,1.783,1.152,2.006,1.389,0.550,1.016,0.946,��,5.2,��
2017/01/25,13:00,1.053,1.780,1.154,2.004,1.387,0.551,1.017,0.946,���k��,5.3,��
2017/01/25,13:10,1.052,1.780,1.156,2.005,1.388,0.552,1.019,0.946,��,4.4,��
2017/01/25,13:20,1.055,1.784,1.156,2.004,1.385,0.551,1.017,0.946,��,7.4,��
2017/01/25,13:30,1.054,1.782,1.156,2.007,1.387,0.550,1.017,0.946,��,6.2,��
2017/01/25,13:40,1.050,1.778,1.154,2.004,1.389,0.549,1.018,0.947,��,5.6,��
2017/01/25,13:50,1.051,1.782,1.156,2.008,1.389,0.551,1.016,0.946,��,6.4,��
2017/01/25,14:00,1.053,1.782,1.158,2.004,1.389,0.553,1.016,0.947,���k��,6.1,��
2017/01/25,14:10,1.050,1.782,1.157,2.005,1.390,0.551,1.016,0.946,��,4.7,��
2017/01/25,14:20,1.054,1.782,1.155,2.006,1.389,0.552,1.017,0.947,���k��,5.3,��
2017/01/25,14:30,1.055,1.787,1.153,2.006,1.389,0.550,1.018,0.947,���k��,4.5,��
2017/01/25,14:40,1.053,1.789,1.155,2.005,1.389,0.553,1.019,0.947,��,5.3,��
2017/01/25,14:50,1.053,1.784,1.157,2.005,1.391,0.550,1.017,0.946,���k��,5.0,��
2017/01/25,15:00,1.054,1.786,1.157,2.009,1.390,0.552,1.020,0.946,�k��,4.4,��
2017/01/25,15:10,1.053,1.787,1.158,2.010,1.390,0.551,1.018,0.947,�k��,3.7,��
2017/01/25,15:20,1.053,1.783,1.159,2.008,1.390,0.551,1.018,0.944,���k��,2.3,��
2017/01/25,15:30,1.053,1.785,1.159,2.011,1.389,0.551,1.017,0.946,�k��,2.6,��
2017/01/25,15:40,1.053,1.786,1.158,2.008,1.391,0.553,1.018,0.946,���k��,4.1,��
2017/01/25,15:50,1.053,1.784,1.159,2.007,1.391,0.553,1.018,0.945,�k��,2.8,��
2017/01/25,16:00,1.053,1.785,1.157,2.008,1.387,0.551,1.017,0.947,���k��,4.8,��
2017/01/25,16:10,1.054,1.783,1.157,2.007,1.390,0.551,1.018,0.947,���k��,5.0,��
2017/01/25,16:20,1.054,1.786,1.160,2.008,1.388,0.550,1.016,0.946,���k��,5.0,��
2017/01/25,16:30,1.053,1.784,1.157,2.010,1.391,0.550,1.019,0.948,���k��,4.6,��
2017/01/25,16:40,1.052,1.786,1.158,2.007,1.390,0.551,1.017,0.945,�k��,4.3,��
2017/01/25,16:50,1.053,1.785,1.156,2.008,1.390,0.552,1.016,0.947,�k��,2.2,��
2017/01/25,17:00,1.052,1.784,1.156,2.006,1.388,0.551,1.018,0.946,��,2.9,��
2017/01/25,17:10,1.050,1.785,1.158,2.002,1.391,0.553,1.016,0.945,��,4.2,��
2017/01/25,17:20,1.051,1.785,1.158,2.005,1.390,0.551,1.015,0.947,��,3.4,��
2017/01/25,17:30,1.051,1.785,1.158,2.008,1.388,0.550,1.013,0.945,��,4.1,��
2017/01/25,17:40,1.051,1.784,1.155,2.007,1.389,0.549,1.013,0.944,���k��,3.7,��
2017/01/25,17:50,1.051,1.787,1.156,2.005,1.388,0.549,1.017,0.946,���k��,3.3,��
2017/01/25,18:00,1.048,1.784,1.157,2.007,1.389,0.551,1.015,0.945,���k��,3.6,��
2017/01/25,18:10,1.048,1.785,1.156,2.006,1.386,0.552,1.015,0.944,�k��,3.4,��
2017/01/25,18:20,1.050,1.784,1.154,2.007,1.390,0.550,1.015,0.945,���k��,1.9,��
2017/01/25,18:30,1.049,1.781,1.155,2.007,1.389,0.549,1.015,0.943,��,3.0,��
2017/01/25,18:40,1.048,1.782,1.156,2.004,1.389,0.550,1.016,0.944,��,2.3,��
2017/01/25,18:50,1.050,1.778,1.154,2.004,1.388,0.549,1.015,0.944,���k��,3.8,��
2017/01/25,19:00,1.047,1.782,1.155,2.003,1.390,0.549,1.014,0.945,�k��,4.9,��
2017/01/25,19:10,1.050,1.779,1.158,2.003,1.389,0.549,1.014,0.944,�k��,5.7,��
2017/01/25,19:20,1.050,1.782,1.156,2.003,1.387,0.550,1.015,0.945,�k��,4.2,��
2017/01/25,19:30,1.048,1.782,1.154,2.002,1.387,0.550,1.014,0.943,���k��,3.6,��
2017/01/25,19:40,1.049,1.780,1.155,2.005,1.387,0.550,1.014,0.945,�k�k��,2.3,��
2017/01/25,19:50,1.047,1.785,1.155,2.003,1.388,0.551,1.013,0.946,�k�k��,1.2,��
2017/01/25,20:00,1.046,1.781,1.155,2.006,1.387,0.549,1.011,0.945,�k��,2.9,��
2017/01/25,20:10,1.048,1.778,1.155,2.004,1.387,0.548,1.016,0.945,���k��,3.8,��
2017/01/25,20:20,1.045,1.778,1.155,2.001,1.388,0.551,1.015,0.944,�k�k��,1.5,��
2017/01/25,20:30,1.047,1.780,1.153,2.002,1.386,0.550,1.015,0.944,�k,2.8,��
2017/01/25,20:40,1.048,1.783,1.152,2.003,1.384,0.549,1.015,0.945,�k�k��,3.8,��
2017/01/25,20:50,1.047,1.780,1.152,2.000,1.386,0.548,1.015,0.945,�k�k��,3.9,��
2017/01/25,21:00,1.047,1.781,1.149,2.003,1.387,0.549,1.013,0.944,�k,3.1,��
2017/01/25,21:10,1.047,1.780,1.154,2.004,1.387,0.551,1.014,0.944,�k��,2.6,��
2017/01/25,21:20,1.044,1.779,1.152,2.004,1.387,0.548,1.013,0.944,���k��,3.8,��
2017/01/25,21:30,1.045,1.781,1.152,2.004,1.383,0.548,1.014,0.944,���k��,4.4,��
2017/01/25,21:40,1.045,1.782,1.152,2.003,1.383,0.549,1.015,0.944,���k��,4.6,��
2017/01/25,21:50,1.045,1.780,1.154,2.001,1.384,0.549,1.015,0.944,���k��,4.4,��
2017/01/25,22:00,1.045,1.779,1.152,2.002,1.382,0.549,1.013,0.945,��,3.3,��
2017/01/25,22:10,1.047,1.784,1.151,2.004,1.383,0.549,1.014,0.945,��,2.6,��
2017/01/25,22:20,1.048,1.781,1.150,2.003,1.383,0.549,1.011,0.944,���k��,3.2,��
2017/01/25,22:30,1.045,1.778,1.152,2.003,1.383,0.550,1.013,0.941,�k��,4.6,��
2017/01/25,22:40,1.045,1.778,1.153,2.004,1.384,0.550,1.013,0.945,�k��,4.7,��
2017/01/25,22:50,1.046,1.780,1.153,2.004,1.386,0.548,1.014,0.944,�k��,4.4,��
2017/01/25,23:00,1.046,1.781,1.153,2.005,1.382,0.549,1.014,0.941,�k��,4.4,��
2017/01/25,23:10,1.045,1.777,1.152,2.003,1.384,0.548,1.014,0.943,���k��,3.8,��
2017/01/25,23:20,1.045,1.779,1.153,1.999,1.383,0.547,1.014,0.943,���k��,3.5,��
2017/01/25,23:30,1.043,1.781,1.152,2.001,1.384,0.546,1.013,0.943,���k��,2.8,��
2017/01/25,23:40,1.048,1.779,1.150,2.001,1.384,0.549,1.012,0.944,���k��,2.0,��
2017/01/25,23:50,1.045,1.779,1.152,2.003,1.383,0.547,1.012,0.944,���k��,2.3,��
